^^
Saratoga-Weather Station Historical Data
Daily Summary for April 27, 2020 Units:  Metric    English   Both
Daily Weekly Monthly Yearly Custom
  High: Low: Average:
Temperature: 12.7 °C 7.3 °C 10.2 °C
Dew Point: 11.4 °C 6.6 °C 9.1 °C
Humidity: 96% 87% 93%
Wind Speed: 19.5km/h 0km/h 3.4km/h
Wind Gust: 22.5km/h - -
Wind- - SSE
Pressure: 1007.8 hPa 994.2 hPa -
Precipitation: 22.1 mm    
Historical Graphs
 
 
Tabular Data for April 27, 2020
Time Temperature Dew Point Pressure Wind Wind Speed Wind Gust Humidity Rainfall Rate (Hourly) solar
00:03 9.4 °C 8.3 °C 1000.7 hPa West 3.2 km/h 14.5 km/h 93% 0.0 mm 0 W/m2
00:08 9.4 °C 8.3 °C 1000.7 hPa WNW 13 km/h 17.7 km/h 93% 0.0 mm 0 W/m2
00:13 9.4 °C 8.3 °C 1000.7 hPa West 9.7 km/h 11.3 km/h 93% 0.0 mm 0 W/m2
00:18 9.5 °C 8.4 °C 1000.7 hPa WSW 6.4 km/h 12.9 km/h 93% 0.0 mm 0 W/m2
00:23 9.5 °C 8.4 °C 1000.7 hPa West 6.4 km/h 19.3 km/h 93% 0.0 mm 0 W/m2
00:28 9.5 °C 8.4 °C 1000.7 hPa West 3.2 km/h 9.7 km/h 93% 0.0 mm 0 W/m2
00:33 9.5 °C 8.4 °C 1000.7 hPa WNW 6.4 km/h 19.3 km/h 93% 0.2 mm 0 W/m2
00:38 9.5 °C 8.4 °C 1000.7 hPa NW 6.4 km/h 14.5 km/h 93% 0.2 mm 0 W/m2
00:43 9.6 °C 8.5 °C 1000.3 hPa WNW 11.1 km/h 17.7 km/h 93% 0.2 mm 0 W/m2
00:48 9.6 °C 8.5 °C 1000.3 hPa WSW 9.7 km/h 17.7 km/h 93% 0.5 mm 0 W/m2
00:53 9.6 °C 8.5 °C 1000.3 hPa West 9.7 km/h 12.9 km/h 93% 0.5 mm 0 W/m2
00:58 9.6 °C 8.5 °C 1000.3 hPa West 4.7 km/h 14.5 km/h 93% 0.5 mm 0 W/m2
01:08 9.7 °C 8.6 °C 1000.3 hPa West 13 km/h 17.7 km/h 93% 0.8 mm 0 W/m2
01:13 9.7 °C 8.6 °C 1000.3 hPa West 4.7 km/h 19.3 km/h 93% 0.8 mm 0 W/m2
01:18 9.7 °C 8.6 °C 1000.3 hPa West 4.7 km/h 17.7 km/h 93% 1.0 mm 0 W/m2
01:23 9.7 °C 8.6 °C 1000.0 hPa West 9.7 km/h   93% 1.0 mm 0 W/m2
01:28 9.7 °C 8.6 °C 1000.0 hPa West 9.7 km/h 14.5 km/h 93% 1.3 mm 0 W/m2
01:33 9.7 °C 8.6 °C 1000.0 hPa West 4.7 km/h   93% 1.3 mm 0 W/m2
01:38 9.6 °C 8.5 °C 1000.0 hPa WSW 7.9 km/h 9.7 km/h 93% 1.5 mm 0 W/m2
01:43 9.6 °C 8.5 °C 1000.0 hPa West 6.4 km/h 19.3 km/h 93% 1.8 mm 0 W/m2
01:48 9.6 °C 8.5 °C 999.7 hPa WSW 7.9 km/h 16.1 km/h 93% 1.8 mm 0 W/m2
01:53 9.6 °C 8.5 °C 999.7 hPa WSW 14.3 km/h 19.3 km/h 93% 1.8 mm 0 W/m2
01:58 9.6 °C 8.5 °C 999.7 hPa West 6.4 km/h 14.5 km/h 93% 1.8 mm 0 W/m2
02:03 9.6 °C 8.5 °C 999.7 hPa WSW 6.4 km/h 19.3 km/h 93% 1.8 mm 0 W/m2
02:08 9.6 °C 8.5 °C 999.7 hPa WNW 6.4 km/h 11.3 km/h 93% 1.8 mm 0 W/m2
02:13 9.5 °C 8.6 °C 999.3 hPa WSW 6.4 km/h 12.9 km/h 94% 1.8 mm 0 W/m2
02:18 9.5 °C 8.6 °C 999.3 hPa WSW 3.2 km/h 11.3 km/h 94% 1.8 mm 0 W/m2
02:23 9.5 °C 8.6 °C 999.3 hPa West 11.1 km/h 16.1 km/h 94% 1.8 mm 0 W/m2
02:28 9.4 °C 8.5 °C 999.0 hPa WNW 4.7 km/h 19.3 km/h 94% 1.8 mm 0 W/m2
02:33 9.4 °C 8.5 °C 999.0 hPa WNW 11.1 km/h 11.3 km/h 94% 1.8 mm 0 W/m2
02:38 9.4 °C 8.5 °C 999.0 hPa West 9.7 km/h 14.5 km/h 94% 1.5 mm 0 W/m2
02:43 9.4 °C 8.5 °C 998.6 hPa NW 1.4 km/h 9.7 km/h 94% 1.5 mm 0 W/m2
02:48 9.4 °C 8.5 °C 998.6 hPa North 4.7 km/h 19.3 km/h 94% 1.5 mm 0 W/m2
02:53 9.4 °C 8.5 °C 998.6 hPa West 3.2 km/h 11.3 km/h 94% 1.8 mm 0 W/m2
02:58 9.4 °C 8.5 °C 998.3 hPa West 6.4 km/h 19.3 km/h 94% 1.8 mm 0 W/m2
03:03 9.4 °C 8.5 °C 998.3 hPa WSW 7.9 km/h 8 km/h 94% 2.0 mm 0 W/m2
03:08 9.5 °C 8.6 °C 998.3 hPa SW 4.7 km/h 12.9 km/h 94% 1.8 mm 0 W/m2
03:13 9.5 °C 8.6 °C 998.3 hPa WNW 11.1 km/h 19.3 km/h 94% 2.0 mm 0 W/m2
03:18 9.5 °C 8.6 °C 998.3 hPa NW 3.2 km/h 14.5 km/h 94% 1.8 mm 0 W/m2
03:23 9.6 °C 8.5 °C 998.0 hPa WSW 4.7 km/h 19.3 km/h 93% 2.0 mm 0 W/m2
03:28 9.5 °C 8.4 °C 998.0 hPa NW 4.7 km/h 11.3 km/h 93% 1.8 mm 0 W/m2
03:33 9.5 °C 8.4 °C 998.0 hPa West 6.4 km/h 16.1 km/h 93% 1.8 mm 0 W/m2
03:38 9.5 °C 8.4 °C 998.0 hPa WSW 6.4 km/h 14.5 km/h 93% 1.5 mm 0 W/m2
03:43 9.6 °C 8.5 °C 998.0 hPa West 19.5 km/h 22.5 km/h 93% 1.5 mm 0 W/m2
03:48 9.6 °C 8.5 °C 998.0 hPa West 9.7 km/h 20.9 km/h 93% 1.5 mm 0 W/m2
03:54 9.6 °C 8.5 °C 998.0 hPa West 14.3 km/h 17.7 km/h 93% 1.5 mm 0 W/m2
03:59 9.6 °C 8.5 °C 997.6 hPa SSW 9.7 km/h 16.1 km/h 93% 1.5 mm 0 W/m2
04:04 9.6 °C 8.5 °C 997.6 hPa NW 3.2 km/h 19.3 km/h 93% 1.5 mm 0 W/m2
04:09 9.7 °C 8.6 °C 997.3 hPa West 3.2 km/h 14.5 km/h 93% 1.8 mm 0 W/m2
04:14 9.7 °C 8.6 °C 997.3 hPa WNW 6.4 km/h 19.3 km/h 93% 1.8 mm 0 W/m2
04:19 9.7 °C 8.6 °C 997.3 hPa SW 4.7 km/h 9.7 km/h 93% 2.0 mm 0 W/m2
04:24 9.6 °C 8.5 °C 997.0 hPa West 11.1 km/h 19.3 km/h 93% 1.8 mm 0 W/m2
04:29 9.7 °C 8.6 °C 997.0 hPa WSW 3.2 km/h 6.4 km/h 93% 2.0 mm 0 W/m2
04:34 9.6 °C 8.5 °C 997.0 hPa WNW 3.2 km/h 16.1 km/h 93% 2.0 mm 0 W/m2
04:39 9.6 °C 8.5 °C 997.0 hPa West 4.7 km/h 11.3 km/h 93% 2.0 mm 0 W/m2
04:44 9.7 °C 8.6 °C 996.6 hPa WNW 1.4 km/h 12.9 km/h 93% 2.3 mm 0 W/m2
04:49 9.7 °C 8.6 °C 997.0 hPa Calm   12.9 km/h 93% 2.0 mm 0 W/m2
04:54 9.7 °C 8.6 °C 997.0 hPa West 4.7 km/h 16.1 km/h 93% 2.3 mm 0 W/m2
04:59 9.7 °C 8.6 °C 996.6 hPa West 14.3 km/h 16.1 km/h 93% 2.3 mm 0 W/m2
05:04 9.6 °C 8.5 °C 996.6 hPa West 4.7 km/h 16.1 km/h 93% 2.3 mm 0 W/m2
05:09 9.6 °C 8.5 °C 996.6 hPa West 9.7 km/h 16.1 km/h 93% 2.5 mm 0 W/m2
05:14 9.7 °C 8.6 °C 996.6 hPa NW 7.9 km/h 20.9 km/h 93% 2.8 mm 0 W/m2
05:19 9.7 °C 8.6 °C 996.6 hPa WNW 6.4 km/h 12.9 km/h 93% 3.0 mm 0 W/m2
05:24 9.7 °C 8.8 °C 996.3 hPa WNW 6.4 km/h 20.9 km/h 94% 3.3 mm 0 W/m2
05:29 9.6 °C 8.7 °C 996.3 hPa West 9.7 km/h 16.1 km/h 94% 3.6 mm 0 W/m2
05:34 9.6 °C 8.7 °C 995.9 hPa WSW 3.2 km/h 9.7 km/h 94% 3.6 mm 0 W/m2
05:39 9.6 °C 8.7 °C 995.9 hPa North 3.2 km/h 16.1 km/h 94% 3.6 mm 0 W/m2
05:44 9.6 °C 8.7 °C 995.9 hPa NW 3.2 km/h 11.3 km/h 94% 3.6 mm 0 W/m2
05:49 9.7 °C 8.8 °C 995.9 hPa SW 1.4 km/h 4.8 km/h 94% 4.1 mm 0 W/m2
05:54 9.7 °C 8.8 °C 995.6 hPa Calm   8 km/h 94% 4.1 mm 0 W/m2
05:59 9.7 °C 8.8 °C 995.6 hPa NNE 1.4 km/h 6.4 km/h 94% 4.1 mm 0 W/m2
06:04 9.7 °C 8.8 °C 995.3 hPa WNW 1.4 km/h 6.4 km/h 94% 4.1 mm 0 W/m2
06:09 9.7 °C 8.8 °C 995.3 hPa WNW 1.4 km/h 4.8 km/h 94% 4.1 mm 0 W/m2
06:14 9.7 °C 8.8 °C 995.3 hPa WSW 3.2 km/h 8 km/h 94% 4.1 mm 0 W/m2
06:19 9.7 °C 8.8 °C 994.9 hPa West 1.4 km/h 12.9 km/h 94% 3.8 mm 0 W/m2
06:24 9.7 °C 8.8 °C 994.9 hPa North 4.7 km/h 6.4 km/h 94% 3.6 mm 0 W/m2
06:29 9.6 °C 8.7 °C 994.6 hPa West 1.4 km/h 11.3 km/h 94% 3.6 mm 0 W/m2
06:34 9.6 °C 8.7 °C 994.6 hPa NNE 4.7 km/h 8 km/h 94% 3.8 mm 0 W/m2
06:39 9.6 °C 8.7 °C 994.6 hPa NW 3.2 km/h 4.8 km/h 94% 4.1 mm 0 W/m2
06:44 9.7 °C 8.8 °C 994.6 hPa WNW 6.4 km/h 9.7 km/h 94% 4.1 mm 0 W/m2
06:49 9.7 °C 8.8 °C 994.6 hPa WSW 7.9 km/h 20.9 km/h 94% 3.8 mm 0 W/m2
06:54 9.7 °C 8.8 °C 994.6 hPa NNW 4.7 km/h 8 km/h 94% 3.6 mm 0 W/m2
06:59 9.7 °C 8.8 °C 994.2 hPa NW 3.2 km/h 20.9 km/h 94% 3.6 mm 0 W/m2
07:04 9.7 °C 8.8 °C 994.2 hPa North 3.2 km/h 4.8 km/h 94% 3.3 mm 0 W/m2
07:09 9.7 °C 8.8 °C 994.2 hPa NNW 4.7 km/h 11.3 km/h 94% 3.3 mm 0 W/m2
07:14 9.7 °C 8.8 °C 994.2 hPa NW 6.4 km/h 6.4 km/h 94% 3.0 mm 0 W/m2
07:19 9.7 °C 8.8 °C 994.2 hPa North 3.2 km/h 9.7 km/h 94% 3.0 mm 0 W/m2
07:24 9.7 °C 8.8 °C 994.2 hPa NNW 3.2 km/h 3.2 km/h 94% 3.3 mm 0 W/m2
07:29 9.7 °C 8.8 °C 994.2 hPa Calm   6.4 km/h 94% 3.3 mm 0 W/m2
07:34 9.7 °C 8.8 °C 994.2 hPa Calm   8 km/h 94% 3.0 mm 0 W/m2
07:39 9.7 °C 8.8 °C 994.2 hPa NNE 3.2 km/h 4.8 km/h 94% 3.0 mm 0 W/m2
07:44 9.7 °C 8.8 °C 994.2 hPa East 4.7 km/h 6.4 km/h 94% 3.0 mm 0 W/m2
07:49 9.7 °C 8.9 °C 994.2 hPa Calm   4.8 km/h 95% 3.3 mm 0 W/m2
07:54 9.7 °C 8.9 °C 994.2 hPa ENE 3.2 km/h 4.8 km/h 95% 3.3 mm 0 W/m2
07:59 9.7 °C 8.9 °C 994.2 hPa ENE 1.4 km/h 8 km/h 95% 3.6 mm 5 W/m2
08:04 9.8 °C 9 °C 994.2 hPa ENE 3.2 km/h 8 km/h 95% 3.8 mm 9 W/m2
08:09 9.8 °C 9 °C 994.2 hPa ESE 4.7 km/h 8 km/h 95% 3.8 mm 11 W/m2
08:14 9.7 °C 8.9 °C 994.2 hPa ENE 4.7 km/h 8 km/h 95% 4.1 mm 14 W/m2
08:19 9.7 °C 8.9 °C 994.2 hPa ENE 6.4 km/h 8 km/h 95% 3.8 mm 16 W/m2
08:24 9.7 °C 8.9 °C 994.2 hPa NE 1.4 km/h 6.4 km/h 95% 3.6 mm 18 W/m2
08:29 9.6 °C 8.8 °C 994.2 hPa ENE 6.4 km/h 12.9 km/h 95% 3.3 mm 23 W/m2
08:34 9.5 °C 8.7 °C 994.2 hPa ENE 3.2 km/h 16.1 km/h 95% 3.3 mm 26 W/m2
08:39 9.5 °C 8.7 °C 994.2 hPa ESE 6.4 km/h 11.3 km/h 95% 3.0 mm 37 W/m2
08:44 9.4 °C 8.6 °C 994.2 hPa NE 3.2 km/h 16.1 km/h 95% 2.8 mm 40 W/m2
08:49 9.4 °C 8.6 °C 994.2 hPa East 11.1 km/h 12.9 km/h 95% 2.5 mm 39 W/m2
08:54 9.4 °C 8.6 °C 994.2 hPa ENE 13 km/h 16.1 km/h 95% 2.3 mm 35 W/m2
09:02 9.4 °C 8.6 °C 994.6 hPa NE 3.2 km/h 11.3 km/h 95% 1.5 mm 37 W/m2
09:07 9.4 °C 8.6 °C 994.6 hPa East 3.2 km/h 11.3 km/h 95% 1.5 mm 39 W/m2
09:12 9.4 °C 8.6 °C 994.6 hPa NE 6.4 km/h 8 km/h 95% 1.3 mm 35 W/m2
09:17 9.4 °C 8.6 °C 994.6 hPa NNE 1.4 km/h 11.3 km/h 95% 1.3 mm 42 W/m2
09:22 9.4 °C 8.8 °C 994.6 hPa ENE 4.7 km/h 8 km/h 96% 1.0 mm 58 W/m2
09:27 9.5 °C 8.9 °C 994.9 hPa East 3.2 km/h 8 km/h 96% 0.8 mm 70 W/m2
09:32 9.5 °C 8.9 °C 994.9 hPa NNE 3.2 km/h 6.4 km/h 96% 0.8 mm 72 W/m2
09:37 9.6 °C 9 °C 994.9 hPa ENE 7.9 km/h 8 km/h 96% 0.5 mm 76 W/m2
09:42 9.6 °C 9 °C 995.3 hPa ENE 3.2 km/h 12.9 km/h 96% 0.5 mm 95 W/m2
09:47 9.7 °C 9.1 °C 995.3 hPa ENE 1.4 km/h 4.8 km/h 96% 0.5 mm 107 W/m2
09:52 9.8 °C 9.2 °C 995.3 hPa ENE 3.2 km/h 14.5 km/h 96% 0.5 mm 91 W/m2
09:57 9.8 °C 9.2 °C 995.3 hPa SE 1.4 km/h 8 km/h 96% 0.5 mm 190 W/m2
10:02 10 °C 9.4 °C 995.6 hPa NE 3.2 km/h 14.5 km/h 96% 0.2 mm 139 W/m2
10:07 10 °C 9.4 °C 995.6 hPa East 4.7 km/h 6.4 km/h 96% 0.2 mm 84 W/m2
10:12 10 °C 9.4 °C 995.6 hPa Calm   1.6 km/h 96% 0.2 mm 69 W/m2
10:21 10 °C 9.4 °C 995.9 hPa SSE 1.4 km/h 4.8 km/h 96% 0.0 mm 149 W/m2
10:26 10.1 °C 9.5 °C 995.9 hPa NE 3.2 km/h 6.4 km/h 96% 0.0 mm 97 W/m2
10:31 10.2 °C 9.6 °C 995.9 hPa ENE 3.2 km/h 9.7 km/h 96% 0.0 mm 116 W/m2
10:36 10.2 °C 9.6 °C 995.9 hPa NE 1.4 km/h 6.4 km/h 96% 0.0 mm 120 W/m2
10:41 10.3 °C 9.7 °C 996.3 hPa East 4.7 km/h 8 km/h 96% 0.0 mm 109 W/m2
10:46 10.4 °C 9.8 °C 996.3 hPa East 3.2 km/h 9.7 km/h 96% 0.0 mm 113 W/m2
10:51 10.4 °C 9.8 °C 996.6 hPa ESE 1.4 km/h 3.2 km/h 96% 0.0 mm 121 W/m2
10:56 10.4 °C 9.8 °C 996.6 hPa ENE 1.4 km/h 9.7 km/h 96% 0.0 mm 104 W/m2
11:01 10.5 °C 9.9 °C 997.0 hPa Calm   4.8 km/h 96% 0.0 mm 98 W/m2
11:06 10.5 °C 9.9 °C 997.0 hPa SE 1.4 km/h 3.2 km/h 96% 0.0 mm 97 W/m2
11:11 10.6 °C 10 °C 997.0 hPa ENE 3.2 km/h 4.8 km/h 96% 0.0 mm 141 W/m2
11:16 10.6 °C 10 °C 997.0 hPa ESE 3.2 km/h 4.8 km/h 96% 0.0 mm 109 W/m2
11:21 10.7 °C 10.1 °C 997.0 hPa ESE 1.4 km/h 4.8 km/h 96% 0.0 mm 139 W/m2
11:26 10.8 °C 10.2 °C 997.0 hPa Calm   4.8 km/h 96% 0.0 mm 188 W/m2
11:31 10.8 °C 10.2 °C 997.3 hPa Calm   6.4 km/h 96% 0.0 mm 139 W/m2
11:36 10.9 °C 10.3 °C 997.3 hPa ENE 3.2 km/h 8 km/h 96% 0.0 mm 176 W/m2
11:41 10.9 °C 10.3 °C 997.6 hPa NW 1.4 km/h 3.2 km/h 96% 0.0 mm 163 W/m2
11:46 10.9 °C 10.3 °C 997.6 hPa ENE 4.7 km/h 6.4 km/h 96% 0.0 mm 197 W/m2
11:51 11 °C 10.4 °C 998.0 hPa ENE 1.4 km/h 4.8 km/h 96% 0.0 mm 167 W/m2
11:56 11.1 °C 10.5 °C 998.0 hPa Calm   6.4 km/h 96% 0.2 mm 167 W/m2
12:01 11.1 °C 10.3 °C 998.0 hPa Calm   6.4 km/h 95% 0.2 mm 174 W/m2
12:06 11.1 °C 10.3 °C 998.0 hPa ENE 1.4 km/h 6.4 km/h 95% 0.2 mm 294 W/m2
12:11 11.2 °C 10.6 °C 998.0 hPa ENE 1.4 km/h 11.3 km/h 96% 0.2 mm 221 W/m2
12:16 11.2 °C 10.4 °C 998.3 hPa NE 6.4 km/h 6.4 km/h 95% 0.2 mm 279 W/m2
12:21 11.4 °C 10.6 °C 998.3 hPa ENE 4.7 km/h 11.3 km/h 95% 0.2 mm 186 W/m2
12:26 11.4 °C 10.6 °C 998.6 hPa NE 1.4 km/h 3.2 km/h 95% 0.2 mm 181 W/m2
12:31 11.4 °C 10.6 °C 998.6 hPa NNE 1.4 km/h 9.7 km/h 95% 0.2 mm 179 W/m2
12:36 11.5 °C 10.6 °C 998.6 hPa SE 1.4 km/h 8 km/h 94% 0.2 mm 144 W/m2
12:41 11.5 °C 10.6 °C 998.6 hPa Calm   4.8 km/h 94% 0.2 mm 236 W/m2
12:46 11.6 °C 10.7 °C 999.0 hPa ENE 4.7 km/h 8 km/h 94% 0.2 mm 142 W/m2
12:51 11.6 °C 10.7 °C 999.0 hPa East 3.2 km/h 6.4 km/h 94% 0.2 mm 156 W/m2
12:56 11.6 °C 10.7 °C 999.0 hPa NNE 3.2 km/h 6.4 km/h 94% 0.0 mm 214 W/m2
13:01 11.6 °C 10.7 °C 999.3 hPa East 1.4 km/h 4.8 km/h 94% 0.0 mm 213 W/m2
13:06 11.7 °C 10.6 °C 999.3 hPa ESE 3.2 km/h 6.4 km/h 93% 0.0 mm 199 W/m2
13:11 11.8 °C 10.7 °C 999.3 hPa Calm   4.8 km/h 93% 0.0 mm 207 W/m2
13:16 11.8 °C 10.5 °C 999.7 hPa ESE 4.7 km/h 8 km/h 92% 0.0 mm 144 W/m2
13:21 11.8 °C 10.5 °C 999.7 hPa NE 3.2 km/h 8 km/h 92% 0.0 mm 118 W/m2
13:26 11.8 °C 10.5 °C 999.7 hPa ESE 1.4 km/h 4.8 km/h 92% 0.0 mm 221 W/m2
13:31 11.8 °C 10.7 °C 999.7 hPa NE 1.4 km/h 8 km/h 93% 0.0 mm 350 W/m2
13:36 11.9 °C 10.8 °C 999.7 hPa East 1.4 km/h 9.7 km/h 93% 0.0 mm 248 W/m2
13:41 12 °C 10.9 °C 999.7 hPa ENE 1.4 km/h 9.7 km/h 93% 0.0 mm 77 W/m2
13:46 12 °C 10.7 °C 1000.0 hPa Calm   6.4 km/h 92% 0.0 mm 146 W/m2
13:51 12 °C 10.7 °C 1000.0 hPa East 3.2 km/h 8 km/h 92% 0.0 mm 105 W/m2
13:56 11.9 °C 10.6 °C 1000.0 hPa ENE 4.7 km/h 9.7 km/h 92% 0.0 mm 116 W/m2
14:01 11.9 °C 10.6 °C 1000.0 hPa East 7.9 km/h 8 km/h 92% 0.0 mm 176 W/m2
14:06 11.9 °C 10.8 °C 1000.3 hPa ENE 3.2 km/h 6.4 km/h 93% 0.0 mm 123 W/m2
14:11 11.8 °C 10.5 °C 1000.3 hPa NNE 6.4 km/h 8 km/h 92% 0.0 mm 116 W/m2
14:16 11.8 °C 10.7 °C 1000.3 hPa ENE 4.7 km/h 12.9 km/h 93% 0.0 mm 118 W/m2
14:21 11.8 °C 10.7 °C 1000.3 hPa ENE 4.7 km/h 12.9 km/h 93% 0.0 mm 62 W/m2
14:26 11.7 °C 10.4 °C 1000.3 hPa East 3.2 km/h 9.7 km/h 92% 0.2 mm 91 W/m2
14:31 11.6 °C 10.5 °C 1000.7 hPa NE 14.5 km/h 14.5 km/h 93% 0.2 mm 149 W/m2
14:36 11.7 °C 10.6 °C 1000.7 hPa SSE 3.2 km/h 4.8 km/h 93% 0.2 mm 86 W/m2
14:41 11.7 °C 10.6 °C 1000.7 hPa ENE 4.7 km/h 16.1 km/h 93% 0.5 mm 70 W/m2
14:46 11.6 °C 10.5 °C 1000.7 hPa East 1.4 km/h 1.6 km/h 93% 0.5 mm 176 W/m2
14:51 11.7 °C 10.8 °C 1001.0 hPa East 3.2 km/h 16.1 km/h 94% 0.5 mm 163 W/m2
14:56 11.8 °C 10.7 °C 1001.0 hPa ENE 6.4 km/h 14.5 km/h 93% 0.5 mm 207 W/m2
15:01 11.9 °C 11 °C 1001.0 hPa Calm   4.8 km/h 94% 0.5 mm 387 W/m2
15:06 12.1 °C 11 °C 1001.0 hPa NE 1.4 km/h 4.8 km/h 93% 0.5 mm 415 W/m2
15:11 12.3 °C 11.4 °C 1001.4 hPa NE 3.2 km/h 4.8 km/h 94% 0.5 mm 278 W/m2
15:16 12.4 °C 11.3 °C 1001.4 hPa East 4.7 km/h 8 km/h 93% 0.5 mm 135 W/m2
15:21 12.3 °C 11 °C 1001.4 hPa East 9.7 km/h 9.7 km/h 92% 0.5 mm 156 W/m2
15:26 12.1 °C 10.8 °C 1001.4 hPa ENE 3.2 km/h 14.5 km/h 92% 0.5 mm 79 W/m2
15:31 12 °C 10.7 °C 1001.7 hPa East 1.4 km/h 6.4 km/h 92% 0.5 mm 95 W/m2
15:36 12.1 °C 11 °C 1001.7 hPa East 3.2 km/h 14.5 km/h 93% 0.5 mm 225 W/m2
15:41 12.1 °C 11 °C 1001.7 hPa Calm   6.4 km/h 93% 0.2 mm 230 W/m2
15:46 12.1 °C 10.8 °C 1001.7 hPa East 3.2 km/h 12.9 km/h 92% 0.0 mm 232 W/m2
15:52 12.1 °C 10.8 °C 1002.0 hPa East 3.2 km/h 9.7 km/h 92% 0.0 mm 216 W/m2
15:57 12.2 °C 10.9 °C 1002.0 hPa East 1.4 km/h 12.9 km/h 92% 0.0 mm 366 W/m2
16:02 12.5 °C 11.2 °C 1002.0 hPa NW 1.4 km/h 4.8 km/h 92% 0.0 mm 232 W/m2
16:07 12.7 °C 11.4 °C 1002.0 hPa East 3.2 km/h 3.2 km/h 92% 0.0 mm 257 W/m2
16:12 12.7 °C 11.1 °C 1002.0 hPa East 1.4 km/h 11.3 km/h 90% 0.0 mm 169 W/m2
16:17 12.6 °C 11 °C 1002.0 hPa NE 3.2 km/h 4.8 km/h 90% 0.0 mm 185 W/m2
16:22 12.4 °C 10.6 °C 1002.4 hPa East 4.7 km/h 9.7 km/h 89% 0.0 mm 216 W/m2
16:27 12.3 °C 10.5 °C 1002.4 hPa ESE 3.2 km/h 6.4 km/h 89% 0.0 mm 251 W/m2
16:32 12.4 °C 10.8 °C 1002.7 hPa ENE 3.2 km/h 3.2 km/h 90% 0.0 mm 353 W/m2
16:37 12.5 °C 10.7 °C 1002.4 hPa Calm   4.8 km/h 89% 0.0 mm 163 W/m2
16:42 12.5 °C 10.7 °C 1002.7 hPa SE 1.4 km/h 4.8 km/h 89% 0.0 mm 142 W/m2
16:47 12.5 °C 10.6 °C 1002.7 hPa ENE 1.4 km/h 6.4 km/h 88% 0.0 mm 74 W/m2
16:52 12.4 °C 10.3 °C 1002.7 hPa ESE 3.2 km/h 6.4 km/h 87% 0.0 mm 139 W/m2
16:57 12.3 °C 10.4 °C 1002.7 hPa SW 3.2 km/h 4.8 km/h 88% 0.0 mm 156 W/m2
17:02 12.3 °C 10.4 °C 1003.0 hPa NE 7.9 km/h 8 km/h 88% 0.0 mm 137 W/m2
17:07 12.2 °C 10.3 °C 1003.0 hPa ESE 3.2 km/h 6.4 km/h 88% 0.0 mm 181 W/m2
17:12 12.2 °C 10.3 °C 1003.0 hPa Calm   4.8 km/h 88% 0.0 mm 165 W/m2
17:17 12.4 °C 10.6 °C 1003.0 hPa Calm   3.2 km/h 89% 0.0 mm 406 W/m2
17:22 12.4 °C 10.5 °C 1003.0 hPa ENE 6.4 km/h 8 km/h 88% 0.0 mm 125 W/m2
17:27 12.2 °C 10.1 °C 1003.0 hPa East 3.2 km/h 6.4 km/h 87% 0.0 mm 125 W/m2
17:32 12.1 °C 10 °C 1003.4 hPa NNE 3.2 km/h 9.7 km/h 87% 0.0 mm 113 W/m2
17:37 12.1 °C 10.2 °C 1003.4 hPa East 4.7 km/h 6.4 km/h 88% 0.0 mm 81 W/m2
17:42 11.9 °C 10 °C 1003.7 hPa NE 4.7 km/h 6.4 km/h 88% 0.0 mm 95 W/m2
17:47 11.8 °C 9.9 °C 1003.7 hPa East 6.4 km/h 6.4 km/h 88% 0.0 mm 135 W/m2
17:52 11.6 °C 9.7 °C 1003.7 hPa East 4.7 km/h 12.9 km/h 88% 0.0 mm 88 W/m2
17:57 11.6 °C 9.8 °C 1004.1 hPa WSW 4.7 km/h 6.4 km/h 89% 0.0 mm 90 W/m2
18:02 11.4 °C 9.7 °C 1004.1 hPa East 3.2 km/h 3.2 km/h 89% 0.0 mm 102 W/m2
18:07 11.5 °C 9.7 °C 1004.1 hPa NE 1.4 km/h 11.3 km/h 89% 0.0 mm 60 W/m2
18:12 11.4 °C 9.7 °C 1004.1 hPa NNW 4.7 km/h 4.8 km/h 89% 0.0 mm 69 W/m2
18:17 11.3 °C 9.6 °C 1004.4 hPa SE 1.4 km/h 6.4 km/h 89% 0.0 mm 51 W/m2
18:22 11.2 °C 9.6 °C 1004.4 hPa West 1.4 km/h 4.8 km/h 90% 0.0 mm 32 W/m2
18:27 11.1 °C 9.5 °C 1004.4 hPa SW 1.4 km/h 3.2 km/h 90% 0.0 mm 33 W/m2
18:32 11 °C 9.4 °C 1004.4 hPa West 1.4 km/h 4.8 km/h 90% 0.0 mm 37 W/m2
18:37 10.9 °C 9.3 °C 1004.7 hPa NE 3.2 km/h 6.4 km/h 90% 0.0 mm 39 W/m2
18:42 10.8 °C 9.2 °C 1004.7 hPa SSE 3.2 km/h 4.8 km/h 90% 0.0 mm 37 W/m2
18:47 10.8 °C 9.2 °C 1004.7 hPa Calm   1.6 km/h 90% 0.0 mm 30 W/m2
18:52 10.7 °C 9.1 °C 1004.7 hPa Calm   1.6 km/h 90% 0.0 mm 21 W/m2
18:57 10.7 °C 9.3 °C 1005.1 hPa East 4.7 km/h 4.8 km/h 91% 0.0 mm 14 W/m2
19:02 10.7 °C 9.3 °C 1005.1 hPa ENE 1.4 km/h 1.6 km/h 91% 0.0 mm 9 W/m2
19:07 10.6 °C 9.2 °C 1005.1 hPa Calm   6.4 km/h 91% 0.0 mm 5 W/m2
19:12 10.6 °C 9.2 °C 1005.1 hPa SE 1.4 km/h 8 km/h 91% 0.0 mm 5 W/m2
19:17 10.5 °C 8.9 °C 1005.4 hPa NNE 1.4 km/h 1.6 km/h 90% 0.0 mm 0 W/m2
19:22 10.4 °C 8.8 °C 1005.4 hPa NNE 3.2 km/h 8 km/h 90% 0.0 mm 0 W/m2
19:27 10.3 °C 8.9 °C 1005.4 hPa Calm   1.6 km/h 91% 0.0 mm 0 W/m2
19:33 10.3 °C 8.9 °C 1005.4 hPa Calm   4.8 km/h 91% 0.0 mm 0 W/m2
19:38 10.1 °C 8.7 °C 1005.4 hPa Calm   1.6 km/h 91% 0.0 mm 0 W/m2
19:43 9.9 °C 8.5 °C 1005.4 hPa Calm     91% 0.0 mm 0 W/m2
19:48 9.8 °C 8.4 °C 1005.4 hPa Calm     91% 0.0 mm 0 W/m2
19:53 9.7 °C 8.5 °C 1005.4 hPa Calm     92% 0.0 mm 0 W/m2
19:58 9.6 °C 8.4 °C 1005.4 hPa Calm   1.6 km/h 92% 0.0 mm 0 W/m2
20:03 9.4 °C 8.2 °C 1005.8 hPa Calm     92% 0.0 mm 0 W/m2
20:08 9.3 °C 8.2 °C 1005.8 hPa Calm     93% 0.0 mm 0 W/m2
20:13 9.2 °C 8.1 °C 1006.1 hPa Calm     93% 0.0 mm 0 W/m2
20:18 9.1 °C 8 °C 1006.1 hPa Calm     93% 0.0 mm 0 W/m2
20:23 8.9 °C 7.8 °C 1006.1 hPa Calm     93% 0.0 mm 0 W/m2
20:28 8.8 °C 7.7 °C 1006.1 hPa Calm     93% 0.0 mm 0 W/m2
20:33 8.8 °C 7.7 °C 1006.4 hPa Calm     93% 0.0 mm 0 W/m2
20:38 8.7 °C 7.8 °C 1006.4 hPa Calm     94% 0.0 mm 0 W/m2
20:43 8.7 °C 7.8 °C 1006.4 hPa Calm   3.2 km/h 94% 0.0 mm 0 W/m2
20:48 8.7 °C 7.8 °C 1006.4 hPa South 1.4 km/h 1.6 km/h 94% 0.0 mm 0 W/m2
20:53 8.7 °C 7.8 °C 1006.4 hPa South 1.4 km/h 3.2 km/h 94% 0.0 mm 0 W/m2
20:58 8.7 °C 7.8 °C 1006.4 hPa Calm     94% 0.0 mm 0 W/m2
21:03 8.7 °C 7.8 °C 1006.4 hPa Calm     94% 0.0 mm 0 W/m2
21:08 8.6 °C 7.7 °C 1006.4 hPa Calm     94% 0.0 mm 0 W/m2
21:13 8.6 °C 7.7 °C 1006.4 hPa Calm     94% 0.0 mm 0 W/m2
21:18 8.5 °C 7.6 °C 1006.4 hPa Calm     94% 0.0 mm 0 W/m2
21:23 8.5 °C 7.6 °C 1006.8 hPa Calm     94% 0.0 mm 0 W/m2
21:28 8.6 °C 7.8 °C 1006.8 hPa Calm     95% 0.0 mm 0 W/m2
21:33 8.6 °C 7.8 °C 1006.8 hPa Calm     95% 0.0 mm 0 W/m2
21:38 8.7 °C 7.9 °C 1007.1 hPa Calm     95% 0.0 mm 0 W/m2
21:43 8.7 °C 7.9 °C 1007.1 hPa Calm     95% 0.0 mm 0 W/m2
21:48 8.7 °C 7.9 °C 1007.1 hPa Calm     95% 0.0 mm 0 W/m2
21:53 8.7 °C 7.9 °C 1007.1 hPa Calm     95% 0.0 mm 0 W/m2
21:58 8.7 °C 7.9 °C 1007.1 hPa Calm     95% 0.0 mm 0 W/m2
22:03 8.7 °C 7.9 °C 1007.5 hPa Calm     95% 0.0 mm 0 W/m2
22:08 8.7 °C 7.9 °C 1007.1 hPa Calm     95% 0.0 mm 0 W/m2
22:13 8.7 °C 7.9 °C 1007.5 hPa Calm     95% 0.0 mm 0 W/m2
22:18 8.6 °C 7.8 °C 1007.5 hPa Calm     95% 0.0 mm 0 W/m2
22:23 8.6 °C 7.8 °C 1007.5 hPa Calm     95% 0.0 mm 0 W/m2
22:28 8.5 °C 7.7 °C 1007.5 hPa Calm     95% 0.0 mm 0 W/m2
22:33 8.4 °C 7.6 °C 1007.5 hPa Calm     95% 0.0 mm 0 W/m2
22:38 8.4 °C 7.6 °C 1007.5 hPa Calm     95% 0.0 mm 0 W/m2
22:43 8.4 °C 7.6 °C 1007.8 hPa Calm     95% 0.0 mm 0 W/m2
22:48 8.3 °C 7.5 °C 1007.5 hPa Calm     95% 0.0 mm 0 W/m2
22:53 8.3 °C 7.5 °C 1007.5 hPa Calm     95% 0.0 mm 0 W/m2
22:58 8.3 °C 7.5 °C 1007.8 hPa Calm     95% 0.0 mm 0 W/m2
23:03 8.3 °C 7.5 °C 1007.8 hPa Calm     95% 0.0 mm 0 W/m2
23:08 8.1 °C 7.3 °C 1007.8 hPa Calm     95% 0.0 mm 0 W/m2
23:14 8.1 °C 7.3 °C 1007.5 hPa Calm     95% 0.0 mm 0 W/m2
23:19 7.9 °C 7.1 °C 1007.5 hPa Calm     95% 0.0 mm 0 W/m2
23:24 7.8 °C 7 °C 1007.8 hPa Calm     95% 0.0 mm 0 W/m2
23:29 7.7 °C 6.9 °C 1007.8 hPa Calm     95% 0.0 mm 0 W/m2
23:34 7.7 °C 6.9 °C 1007.5 hPa Calm     95% 0.0 mm 0 W/m2
23:39 7.6 °C 6.9 °C 1007.5 hPa Calm     95% 0.0 mm 0 W/m2
23:44 7.4 °C 6.7 °C 1007.8 hPa Calm     95% 0.0 mm 0 W/m2
23:49 7.4 °C 6.7 °C 1007.8 hPa Calm     95% 0.0 mm 0 W/m2
23:54 7.3 °C 6.6 °C 1007.8 hPa Calm     95% 0.0 mm 0 W/m2
23:59 7.3 °C 6.6 °C 1007.8 hPa Calm     95% 0.0 mm 0 W/m2
Juneau County Weather
Compliments of Weather Underground - 4 mb